sat.trackr.live / text

‹ back to catalog

HULIANWANG DIGUI-122

NORAD 67062 · 2025-295D

PAYLOAD ACTIVE UNKNOWN

§ Identity

Operator
Country
PRC
Launch date
2025-12-11
Launch site
WSC
Launch vehicle
Mass (kg)
RCS (m²)

External: N2YO · Heavens-Above · Gunter

§ Orbital elements

Epoch: 2026-09-19T18:46:39.147456Z

Period
108.33 min
Inclination
50.0044°
Eccentricity
0.0000754
Mean motion
13.29325760 rev/d
Perigee alt
1,148.7 km
Apogee alt
1,149.9 km
Semi-major
7,527.4 km
B*
3.4011e-5
RAAN
46.2886°
Arg perigee
78.7501°
Mean anomaly
281.3455°
Rev number
3,808

§ Raw data

HULIANWANG DIGUI-1221 67062U 25295D   26262.78239754 -.00000108  00000+0  34011-4 0  99992 67062  50.0044  46.2886 0000754  78.7501 281.3455 13.29325760 38089

JSON: /api/v1/satellites/67062 · /tle

For live sub-satellite position, see the globe view (requires WebGL).

§ Visibility from observer

Set your observer location to see the next 7 days of passes ≥ 10°. The values pass through the URL so the page stays shareable.

No JS? Fill the form by hand. The geolocation button needs JavaScript.